| time (UTC) | temp C | wind direction | speed KPH | gust KPH | rain 1hr cm | rain 24hr cm | rain mn cm | humidity % | barometer mb |
| 20260508085006 | 3 | 144 | 1.6 | 3.2 | 0.00 | 0.00 | 0.00 | 87 | 1014.4 |
| 20260508084505 | 3 | 144 | 0.0 | 0.0 | 0.00 | 0.00 | 0.00 | 85 | 1014.4 |
| 20260508084006 | 3 | 144 | 0.0 | 0.0 | 0.00 | 0.00 | 0.00 | 83 | 1014.5 |
| 20260508083506 | 3 | 144 | 0.0 | 3.2 | 0.00 | 0.00 | 0.00 | 83 | 1014.5 |
| 20260508083006 | 4 | 144 | 0.0 | 4.8 | 0.00 | 0.00 | 0.00 | 83 | 1008.1 |
| 20260508082505 | 4 | 144 | 3.2 | 6.4 | 0.00 | 0.00 | 0.00 | 84 | 1014.2 |
| 20260508082006 | 4 | 144 | 3.2 | 6.4 | 0.00 | 0.00 | 0.00 | 83 | 1014.2 |
| 20260508081505 | 5 | 144 | 3.2 | 6.4 | 0.00 | 0.00 | 0.00 | 83 | 1014.3 |
| 20260508081503 | 5 | 144 | 3.2 | 6.4 | 0.00 | 0.00 | 0.00 | 83 | 1008.1 |
| 20260508081007 | 5 | 144 | 4.8 | 6.4 | 0.00 | 0.00 | 0.00 | 83 | 1014.4 |
| 20260508080505 | 5 | 144 | 1.6 | 4.8 | 0.00 | 0.00 | 0.00 | 80 | 1014.5 |
| 20260508080010 | 5 | 144 | 0.0 | 4.8 | 0.00 | 0.00 | 0.00 | 78 | 1008.4 |
| 20260508080008 | 5 | 144 | 0.0 | 4.8 | 0.00 | 0.00 | 0.00 | 78 | 1014.6 |
| 20260508074515 | 6 | 144 | 3.2 | 9.7 | 0.00 | 0.00 | 0.00 | 79 | 1008.4 |
| 20260508074007 | 6 | 144 | 6.4 | 9.7 | 0.00 | 0.00 | 0.00 | 78 | 1014.6 |
| 20260508073007 | 6 | 112 | 4.8 | 6.4 | 0.00 | 0.00 | 0.00 | 77 | 1014.8 |
| 20260508073002 | 6 | 112 | 3.2 | 6.4 | 0.00 | 0.00 | 0.00 | 77 | 1008.8 |
| 20260508072505 | 6 | 62 | 3.2 | 9.7 | 0.00 | 0.00 | 0.00 | 77 | 1014.8 |
| 20260508072006 | 6 | 62 | 4.8 | 9.7 | 0.00 | 0.00 | 0.00 | 77 | 1014.9 |
| 20260508071505 | 6 | 59 | 6.4 | 9.7 | 0.00 | 0.00 | 0.00 | 77 | 1015.0 |
| 20260508071006 | 6 | 54 | 6.4 | 9.7 | 0.00 | 0.00 | 0.00 | 77 | 1015.1 |
| 20260508070504 | 6 | 46 | 4.8 | 6.4 | 0.00 | 0.00 | 0.00 | 78 | 1015.4 |
| 20260508070004 | 6 | 24 | 0.0 | 6.4 | 0.00 | 0.00 | 0.00 | 77 | 1009.6 |
| 20260508065505 | 6 | 24 | 4.8 | 6.4 | 0.00 | 0.00 | 0.00 | 76 | 1015.6 |
| 20260508065006 | 7 | 22 | 3.2 | 6.4 | 0.00 | 0.00 | 0.00 | 73 | 1015.7 |
| 20260508064505 | 7 | 134 | 3.2 | 4.8 | 0.00 | 0.00 | 0.00 | 72 | 1015.1 |
| 20260508064503 | 7 | 134 | 3.2 | 4.8 | 0.00 | 0.00 | 0.00 | 72 | 1009.3 |
| 20260508064006 | 7 | 134 | 0.0 | 1.6 | 0.00 | 0.00 | 0.00 | 71 | 1014.8 |
| 20260508063508 | 7 | 134 | 0.0 | 3.2 | 0.00 | 0.00 | 0.00 | 71 | 1014.8 |
| 20260508063006 | 7 | 134 | 1.6 | 4.8 | 0.00 | 0.00 | 0.00 | 72 | 1014.8 |
| 20260508063002 | 7 | 134 | 0.0 | 4.8 | 0.00 | 0.00 | 0.00 | 72 | 1009.1 |
| 20260508062506 | 7 | 134 | 3.2 | 4.8 | 0.00 | 0.00 | 0.00 | 72 | 1014.7 |
| 20260508062005 | 7 | 134 | 1.6 | 6.4 | 0.00 | 0.00 | 0.00 | 71 | 1014.7 |
| 20260508061506 | 7 | 134 | 3.2 | 6.4 | 0.00 | 0.00 | 0.00 | 71 | 1014.6 |
| 20260508061503 | 7 | 134 | 3.2 | 6.4 | 0.00 | 0.00 | 0.00 | 71 | 1009.0 |
| 20260508061006 | 7 | 134 | 3.2 | 8.0 | 0.00 | 0.00 | 0.00 | 71 | 1014.6 |
| 20260508060004 | 8 | 136 | 3.2 | 11.3 | 0.00 | 0.00 | 0.00 | 70 | 1009.0 |
| 20260508055503 | 8 | 136 | 6.4 | 11.3 | 0.00 | 0.00 | 0.00 | 69 | 1014.8 |
| 20260508055004 | 8 | 82 | 4.8 | 8.0 | 0.00 | 0.00 | 0.00 | 68 | 1014.8 |
| 20260508054504 | 8 | 44 | 3.2 | 8.0 | 0.00 | 0.00 | 0.00 | 69 | 1015.0 |
| 20260508054005 | 8 | 44 | 4.8 | 12.9 | 0.00 | 0.00 | 0.00 | 68 | 1015.0 |
| 20260508053005 | 8 | 15 | 4.8 | 9.7 | 0.00 | 0.00 | 0.00 | 67 | 1015.4 |
| 20260508053002 | 8 | 15 | 4.8 | 9.7 | 0.00 | 0.00 | 0.00 | 67 | 1009.9 |
| 20260508052504 | 8 | 15 | 8.0 | 9.7 | 0.00 | 0.00 | 0.00 | 66 | 1015.1 |
| 20260508052004 | 8 | 92 | 1.6 | 6.4 | 0.00 | 0.00 | 0.00 | 64 | 1014.8 |
| 20260508051504 | 8 | 92 | 0.0 | 4.8 | 0.00 | 0.00 | 0.00 | 63 | 1014.6 |
| 20260508051502 | 8 | 92 | 0.0 | 4.8 | 0.00 | 0.00 | 0.00 | 63 | 1009.3 |
| 20260508051005 | 9 | 92 | 3.2 | 4.8 | 0.00 | 0.00 | 0.00 | 62 | 1014.4 |
| 20260508050504 | 9 | 92 | 0.0 | 6.4 | 0.00 | 0.00 | 0.00 | 61 | 1014.5 |
| 20260508050006 | 9 | 92 | 6.4 | 6.4 | 0.00 | 0.00 | 0.00 | 60 | 1014.5 |
| 20260508050002 | 9 | 92 | 4.8 | 6.4 | 0.00 | 0.00 | 0.00 | 60 | 1009.3 |
| 20260508045504 | 10 | 92 | 0.0 | 6.4 | 0.00 | 0.00 | 0.00 | 59 | 1014.4 |
| 20260508045005 | 10 | 92 | 3.2 | 14.5 | 0.00 | 0.00 | 0.00 | 59 | 1014.4 |
| 20260508044504 | 10 | 100 | 8.0 | 14.5 | 0.00 | 0.00 | 0.00 | 59 | 1014.4 |
| 20260508044502 | 10 | 100 | 6.4 | 14.5 | 0.00 | 0.00 | 0.00 | 59 | 1009.3 |
| 20260508043006 | 10 | 109 | 0.0 | 0.0 | 0.00 | 0.00 | 0.00 | 57 | 1014.5 |
| 20260508043002 | 10 | 109 | 0.0 | 0.0 | 0.00 | 0.00 | 0.00 | 57 | 1009.5 |
| 20260508042004 | 10 | 109 | 0.0 | 3.2 | 0.00 | 0.00 | 0.00 | 57 | 1014.3 |
| 20260508041505 | 10 | 109 | 1.6 | 4.8 | 0.00 | 0.00 | 0.00 | 55 | 1014.2 |
| 20260508041503 | 10 | 109 | 0.0 | 4.8 | 0.00 | 0.00 | 0.00 | 55 | 1009.3 |
| 20260508041004 | 10 | 109 | 3.2 | 4.8 | 0.00 | 0.00 | 0.00 | 53 | 1014.2 |
| 20260508040504 | 10 | 109 | 3.2 | 4.8 | 0.00 | 0.00 | 0.00 | 55 | 1014.2 |
| 20260508040006 | 10 | 109 | 0.0 | 4.8 | 0.00 | 0.00 | 0.00 | 55 | 1014.3 |
| 20260508040003 | 10 | 109 | 0.0 | 4.8 | 0.00 | 0.00 | 0.00 | 55 | 1009.5 |
| 20260508035505 | 10 | 109 | 0.0 | 11.3 | 0.00 | 0.00 | 0.00 | 56 | 1014.3 |
| 20260508034501 | 10 | 328 | 1.6 | 3.2 | 0.00 | 0.00 | 0.00 | 53 | 1009.8 |
| 20260508034004 | 10 | 328 | 0.0 | 3.2 | 0.00 | 0.00 | 0.00 | 54 | 1014.6 |
| 20260508033504 | 11 | 328 | 0.0 | 3.2 | 0.00 | 0.00 | 0.00 | 54 | 1014.7 |
| 20260508033057 | 11 | 328 | 1.6 | 3.2 | 0.00 | 0.00 | 0.00 | 53 | 1010.0 |
| 20260508033002 | 11 | 11 | 1.6 | 3.2 | 0.00 | 0.00 | 0.00 | 53 | 1014.7 |
| 20260508032504 | 11 | 11 | 0.0 | 6.4 | 0.00 | 0.00 | 0.00 | 51 | 1014.4 |
| 20260508031502 | 11 | 329 | 1.6 | 19.3 | 0.00 | 0.00 | 0.00 | 50 | 1009.6 |
| 20260508031005 | 11 | 15 | 8.0 | 24.1 | 0.00 | 0.00 | 0.00 | 49 | 1014.1 |
| 20260508030504 | 11 | 19 | 9.7 | 24.1 | 0.00 | 0.00 | 0.00 | 49 | 1014.1 |
| 20260508030006 | 11 | 43 | 14.5 | 22.5 | 0.00 | 0.00 | 0.00 | 50 | 1013.9 |
| 20260508030003 | 11 | 43 | 14.5 | 22.5 | 0.00 | 0.00 | 0.00 | 50 | 1009.3 |
| 20260508025504 | 11 | 43 | 12.9 | 20.9 | 0.00 | 0.00 | 0.00 | 50 | 1013.9 |
| 20260508025005 | 11 | 9 | 9.7 | 20.9 | 0.00 | 0.00 | 0.00 | 51 | 1014.0 |
| 20260508024504 | 11 | 26 | 12.9 | 29.0 | 0.00 | 0.00 | 0.00 | 52 | 1013.9 |
| 20260508024502 | 11 | 26 | 12.9 | 29.0 | 0.00 | 0.00 | 0.00 | 52 | 1009.3 |
| 20260508024004 | 11 | 13 | 17.7 | 29.0 | 0.00 | 0.00 | 0.00 | 51 | 1014.0 |
| 20260508023500 | 12 | 355 | 6.4 | 16.1 | 0.00 | 0.00 | 0.00 | 51 | 1013.9 |
| 20260508023004 | 12 | 305 | 1.6 | 3.2 | 0.00 | 0.00 | 0.00 | 52 | 1013.7 |
| 20260508023002 | 12 | 305 | 1.6 | 3.2 | 0.00 | 0.00 | 0.00 | 52 | 1009.2 |
| 20260508022504 | 12 | 305 | 0.0 | 8.0 | 0.00 | 0.00 | 0.00 | 49 | 1013.3 |
| 20260508022004 | 12 | 305 | 3.2 | 8.0 | 0.00 | 0.00 | 0.00 | 57 | 1013.3 |
| 20260508021504 | 12 | 305 | 0.0 | 4.8 | 0.00 | 0.00 | 0.00 | 53 | 1013.2 |
| 20260508021502 | 12 | 305 | 0.0 | 4.8 | 0.00 | 0.00 | 0.00 | 53 | 1008.9 |
| 20260508020500 | 12 | 305 | 1.6 | 4.8 | 0.00 | 0.00 | 0.00 | 55 | 1013.1 |
| 20260508020006 | 13 | 305 | 0.0 | 3.2 | 0.00 | 0.00 | 0.00 | 45 | 1012.9 |
| 20260508020003 | 13 | 305 | 0.0 | 3.2 | 0.00 | 0.00 | 0.00 | 45 | 1008.8 |
| 20260508014504 | 13 | 305 | 0.0 | 0.0 | 0.00 | 0.00 | 0.00 | 39 | 1012.7 |
| 20260508014502 | 13 | 305 | 0.0 | 0.0 | 0.00 | 0.00 | 0.00 | 39 | 1008.8 |
| 20260508014006 | 13 | 305 | 0.0 | 0.0 | 0.00 | 0.00 | 0.00 | 36 | 1012.7 |
| 20260508013503 | 14 | 305 | 0.0 | 0.0 | 0.00 | 0.00 | 0.00 | 36 | 1012.6 |
| 20260508013006 | 14 | 305 | 0.0 | 0.0 | 0.00 | 0.00 | 0.00 | 37 | 1012.5 |
| 20260508013001 | 14 | 305 | 0.0 | 0.0 | 0.00 | 0.00 | 0.00 | 37 | 1008.6 |
| 20260508012503 | 14 | 305 | 0.0 | 0.0 | 0.00 | 0.00 | 0.00 | 36 | 1012.5 |
| 20260508012004 | 14 | 305 | 0.0 | 0.0 | 0.00 | 0.00 | 0.00 | 37 | 1012.4 |
| 20260508011508 | 14 | 305 | 0.0 | 0.0 | 0.00 | 0.00 | 0.00 | 44 | 1008.7 |
| 20260508010504 | 14 | 305 | 0.0 | 0.0 | 0.00 | 0.00 | 0.00 | 38 | 1012.5 |
| 20260508010002 | 14 | 305 | 0.0 | 1.6 | 0.00 | 0.00 | 0.00 | 40 | 1008.8 |
| 20260508005504 | 15 | 305 | 0.0 | 3.2 | 0.00 | 0.00 | 0.00 | 40 | 1012.4 |
| 20260508005005 | 15 | 305 | 0.0 | 6.4 | 0.00 | 0.00 | 0.00 | 36 | 1012.4 |
| 20260508004504 | 15 | 305 | 4.8 | 11.3 | 0.00 | 0.00 | 0.00 | 34 | 1012.3 |
| 20260508004502 | 15 | 305 | 3.2 | 11.3 | 0.00 | 0.00 | 0.00 | 34 | 1008.8 |
| 20260508004008 | 15 | 298 | 6.4 | 14.5 | 0.00 | 0.00 | 0.00 | 32 | 1012.3 |
| 20260508003504 | 15 | 293 | 8.0 | 14.5 | 0.00 | 0.00 | 0.00 | 33 | 1012.3 |
| 20260508003001 | 16 | 290 | 8.0 | 17.7 | 0.00 | 0.00 | 0.00 | 29 | 1008.9 |
| 20260508002004 | 16 | 318 | 8.0 | 16.1 | 0.00 | 0.00 | 0.00 | 29 | 1012.3 |
| 20260508001504 | 16 | 257 | 4.8 | 16.1 | 0.00 | 0.00 | 0.00 | 30 | 1012.4 |
| 20260508001501 | 16 | 257 | 3.2 | 16.1 | 0.00 | 0.00 | 0.00 | 30 | 1009.1 |
| 20260508001004 | 16 | 239 | 9.7 | 17.7 | 0.00 | 0.00 | 0.00 | 30 | 1012.5 |
| 20260508000504 | 17 | 288 | 8.0 | 17.7 | 0.00 | 0.00 | 0.00 | 29 | 1012.4 |
| 20260508000006 | 16 | 286 | 8.0 | 19.3 | 0.00 | 0.00 | 0.00 | 29 | 1012.4 |
| 20260508000003 | 16 | 286 | 6.4 | 19.3 | 0.00 | 0.00 | 0.00 | 29 | 1009.3 |
| 20260507235004 | 17 | 252 | 8.0 | 17.7 | 0.00 | 0.00 | 0.00 | 29 | 1012.4 |
| 20260507234504 | 16 | 298 | 12.9 | 19.3 | 0.00 | 0.00 | 0.00 | 29 | 1012.4 |
| 20260507234502 | 16 | 298 | 11.3 | 19.3 | 0.00 | 0.00 | 0.00 | 29 | 1009.4 |
| 20260507233504 | 17 | 294 | 6.4 | 24.1 | 0.00 | 0.00 | 0.00 | 29 | 1012.5 |
| 20260507233005 | 17 | 303 | 9.7 | 20.9 | 0.00 | 0.00 | 0.00 | 29 | 1009.6 |
| 20260507232503 | 16 | 300 | 11.3 | 22.5 | 0.00 | 0.00 | 0.00 | 30 | 1012.5 |
| 20260507231504 | 16 | 294 | 14.5 | 22.5 | 0.00 | 0.00 | 0.00 | 32 | 1012.5 |
| 20260507231502 | 16 | 294 | 12.9 | 22.5 | 0.00 | 0.00 | 0.00 | 32 | 1009.7 |
| 20260507231004 | 15 | 294 | 9.7 | 12.9 | 0.00 | 0.00 | 0.00 | 34 | 1012.6 |
| 20260507230504 | 15 | 316 | 6.4 | 14.5 | 0.00 | 0.00 | 0.00 | 33 | 1012.6 |
| 20260507230005 | 15 | 292 | 6.4 | 14.5 | 0.00 | 0.00 | 0.00 | 32 | 1012.6 |
| 20260507230003 | 15 | 292 | 4.8 | 14.5 | 0.00 | 0.00 | 0.00 | 32 | 1010.0 |
| 20260507225504 | 16 | 289 | 4.8 | 17.7 | 0.00 | 0.00 | 0.00 | 32 | 1012.5 |
| 20260507225005 | 16 | 262 | 6.4 | 25.7 | 0.00 | 0.00 | 0.00 | 31 | 1012.6 |
| 20260507224504 | 17 | 284 | 12.9 | 29.0 | 0.00 | 0.00 | 0.00 | 31 | 1012.6 |
| 20260507224501 | 17 | 284 | 11.3 | 29.0 | 0.00 | 0.00 | 0.00 | 31 | 1010.0 |
| 20260507223504 | 17 | 294 | 16.1 | 25.7 | 0.00 | 0.00 | 0.00 | 30 | 1012.6 |
| 20260507223004 | 17 | 281 | 17.7 | 25.7 | 0.00 | 0.00 | 0.00 | 29 | 1012.6 |
| 20260507223002 | 17 | 281 | 16.1 | 25.7 | 0.00 | 0.00 | 0.00 | 29 | 1010.2 |
| 20260507222005 | 17 | 293 | 11.3 | 29.0 | 0.00 | 0.00 | 0.00 | 32 | 1012.7 |
| 20260507221503 | 17 | 289 | 17.7 | 29.0 | 0.00 | 0.00 | 0.00 | 31 | 1012.7 |
| 20260507221501 | 17 | 289 | 17.7 | 29.0 | 0.00 | 0.00 | 0.00 | 31 | 1010.4 |
| 20260507220503 | 16 | 289 | 17.7 | 29.0 | 0.00 | 0.00 | 0.00 | 32 | 1013.0 |
| 20260507220009 | 17 | 316 | 16.1 | 25.7 | 0.00 | 0.00 | 0.00 | 30 | 1013.0 |
| 20260507220002 | 17 | 316 | 14.5 | 25.7 | 0.00 | 0.00 | 0.00 | 30 | 1010.9 |
| 20260507215504 | 17 | 304 | 14.5 | 30.6 | 0.00 | 0.00 | 0.00 | 33 | 1013.0 |
| 20260507215005 | 16 | 290 | 16.1 | 32.2 | 0.00 | 0.00 | 0.00 | 35 | 1013.2 |
| 20260507214504 | 16 | 287 | 22.5 | 32.2 | 0.00 | 0.00 | 0.00 | 31 | 1013.2 |
| 20260507214501 | 16 | 287 | 22.5 | 32.2 | 0.00 | 0.00 | 0.00 | 31 | 1011.2 |
| 20260507214004 | 16 | 310 | 17.7 | 29.0 | 0.00 | 0.00 | 0.00 | 30 | 1013.2 |
| 20260507213504 | 16 | 280 | 19.3 | 30.6 | 0.00 | 0.00 | 0.00 | 31 | 1013.2 |
| 20260507213005 | 16 | 313 | 19.3 | 30.6 | 0.00 | 0.00 | 0.00 | 32 | 1013.3 |
| 20260507212503 | 16 | 291 | 19.3 | 30.6 | 0.00 | 0.00 | 0.00 | 32 | 1013.4 |
| 20260507212005 | 16 | 286 | 16.1 | 35.4 | 0.00 | 0.00 | 0.00 | 32 | 1013.4 |
| 20260507211504 | 16 | 298 | 20.9 | 35.4 | 0.00 | 0.00 | 0.00 | 30 | 1013.4 |
| 20260507211502 | 16 | 298 | 20.9 | 35.4 | 0.00 | 0.00 | 0.00 | 30 | 1011.6 |
| 20260507210503 | 16 | 284 | 20.9 | 32.2 | 0.00 | 0.00 | 0.00 | 30 | 1013.5 |
| 20260507210006 | 16 | 292 | 20.9 | 27.4 | 0.00 | 0.00 | 0.00 | 31 | 1013.4 |
| 20260507210004 | 16 | 292 | 19.3 | 27.4 | 0.00 | 0.00 | 0.00 | 31 | 1011.8 |
| 20260507205504 | 16 | 294 | 17.7 | 30.6 | 0.00 | 0.15 | 0.00 | 33 | 1013.4 |
| 20260507204504 | 16 | 300 | 24.1 | 35.4 | 0.00 | 0.15 | 0.00 | 30 | 1013.6 |
| 20260507204502 | 16 | 300 | 24.1 | 35.4 | 0.00 | 0.15 | 0.00 | 30 | 1012.1 |
| 20260507203003 | 16 | 288 | 17.7 | 30.6 | 0.00 | 0.15 | 0.00 | 31 | 1012.5 |
| 20260507202504 | 16 | 284 | 9.7 | 24.1 | 0.00 | 0.15 | 0.00 | 37 | 1013.9 |
| 20260507202008 | 16 | 263 | 14.5 | 24.1 | 0.00 | 0.15 | 0.00 | 32 | 1014.0 |
| 20260507201512 | 16 | 294 | 8.0 | 24.1 | 0.00 | 0.15 | 0.00 | 35 | 1012.8 |
| 20260507201507 | 16 | 294 | 9.7 | 24.1 | 0.00 | 0.15 | 0.00 | 35 | 1014.0 |
| 20260507201004 | 16 | 273 | 12.9 | 24.1 | 0.00 | 0.15 | 0.00 | 34 | 1014.2 |
| 20260507200506 | 16 | 292 | 14.5 | 30.6 | 0.00 | 0.15 | 0.00 | 35 | 1014.2 |
| 20260507200009 | 16 | 259 | 19.3 | 30.6 | 0.00 | 0.15 | 0.00 | 32 | 1013.3 |
| 20260507200007 | 16 | 259 | 20.9 | 30.6 | 0.00 | 0.15 | 0.00 | 32 | 1014.2 |
| 20260507195509 | 16 | 296 | 8.0 | 17.7 | 0.00 | 0.58 | 0.00 | 35 | 1014.2 |
| 20260507195006 | 16 | 306 | 6.4 | 17.7 | 0.00 | 0.58 | 0.00 | 32 | 1014.2 |
| 20260507194506 | 16 | 263 | 4.8 | 16.1 | 0.00 | 0.58 | 0.00 | 33 | 1014.3 |
| 20260507194006 | 16 | 244 | 6.4 | 17.7 | 0.00 | 0.58 | 0.00 | 33 | 1014.4 |
| 20260507193505 | 15 | 269 | 8.0 | 20.9 | 0.00 | 0.58 | 0.00 | 32 | 1014.5 |
| 20260507193008 | 15 | 305 | 12.9 | 20.9 | 0.00 | 0.58 | 0.00 | 35 | 1013.8 |
| 20260507192506 | 15 | 246 | 9.7 | 19.3 | 0.00 | 0.58 | 0.00 | 32 | 1014.5 |
| 20260507192005 | 15 | 244 | 9.7 | 24.1 | 0.00 | 0.58 | 0.00 | 32 | 1014.6 |
| 20260507191506 | 15 | 284 | 9.7 | 24.1 | 0.00 | 0.58 | 0.00 | 38 | 1014.6 |
| 20260507191503 | 15 | 284 | 8.0 | 24.1 | 0.00 | 0.58 | 0.00 | 38 | 1014.2 |
| 20260507191006 | 15 | 326 | 9.7 | 22.5 | 0.00 | 0.58 | 0.00 | 38 | 1014.6 |
| 20260507190507 | 15 | 285 | 8.0 | 22.5 | 0.00 | 0.58 | 0.00 | 37 | 1014.7 |
| 20260507190006 | 15 | 306 | 11.3 | 20.9 | 0.00 | 0.58 | 0.00 | 35 | 1014.8 |
| 20260507190004 | 15 | 306 | 11.3 | 20.9 | 0.00 | 0.58 | 0.00 | 35 | 1014.6 |
| 20260507185506 | 15 | 300 | 9.7 | 17.7 | 0.00 | 0.94 | 0.00 | 36 | 1014.9 |
| 20260507185006 | 15 | 301 | 6.4 | 17.7 | 0.00 | 0.94 | 0.00 | 31 | 1014.9 |
| 20260507184507 | 15 | 308 | 8.0 | 17.7 | 0.00 | 0.94 | 0.00 | 27 | 1015.0 |
| 20260507184504 | 15 | 308 | 6.4 | 17.7 | 0.00 | 0.94 | 0.00 | 27 | 1014.9 |
| 20260507184006 | 15 | 267 | 12.9 | 17.7 | 0.00 | 0.94 | 0.00 | 29 | 1015.0 |
| 20260507183505 | 15 | 226 | 6.4 | 16.1 | 0.00 | 0.94 | 0.00 | 33 | 1015.0 |
| 20260507183007 | 15 | 302 | 8.0 | 16.1 | 0.00 | 0.94 | 0.00 | 34 | 1015.0 |
| 20260507183003 | 15 | 302 | 8.0 | 16.1 | 0.00 | 0.94 | 0.00 | 34 | 1015.0 |
| 20260507182506 | 15 | 187 | 4.8 | 12.9 | 0.00 | 0.94 | 0.00 | 38 | 1015.1 |
| 20260507182007 | 15 | 309 | 4.8 | 12.9 | 0.00 | 0.94 | 0.00 | 34 | 1015.0 |
| 20260507181507 | 14 | 234 | 4.8 | 14.5 | 0.00 | 0.94 | 0.00 | 40 | 1015.2 |
| 20260507181504 | 14 | 234 | 4.8 | 14.5 | 0.00 | 0.94 | 0.00 | 40 | 1015.2 |
| 20260507181007 | 14 | 273 | 6.4 | 16.1 | 0.00 | 0.94 | 0.00 | 38 | 1015.2 |
| 20260507180506 | 14 | 215 | 6.4 | 12.9 | 0.00 | 0.94 | 0.00 | 36 | 1015.2 |
| 20260507180006 | 13 | 252 | 4.8 | 12.9 | 0.00 | 0.94 | 0.00 | 38 | 1015.3 |
| 20260507180003 | 13 | 252 | 4.8 | 12.9 | 0.00 | 0.94 | 0.00 | 38 | 1015.5 |
| 20260507175506 | 13 | 252 | 3.2 | 16.1 | 0.00 | 0.99 | 0.00 | 41 | 1015.3 |
| 20260507175005 | 13 | 263 | 8.0 | 16.1 | 0.00 | 0.99 | 0.00 | 38 | 1015.3 |
| 20260507174508 | 13 | 286 | 6.4 | 14.5 | 0.00 | 0.99 | 0.00 | 46 | 1015.4 |
| 20260507174505 | 13 | 286 | 6.4 | 14.5 | 0.00 | 0.99 | 0.00 | 46 | 1015.7 |
| 20260507174006 | 13 | 306 | 8.0 | 14.5 | 0.00 | 0.99 | 0.00 | 44 | 1015.5 |
| 20260507173506 | 13 | 297 | 6.4 | 14.5 | 0.00 | 0.99 | 0.00 | 47 | 1015.5 |
| 20260507173004 | 12 | 248 | 4.8 | 14.5 | 0.00 | 0.99 | 0.00 | 47 | 1016.0 |
| 20260507172506 | 12 | 239 | 6.4 | 16.1 | 0.00 | 0.99 | 0.00 | 48 | 1015.7 |
| 20260507172006 | 12 | 252 | 6.4 | 16.1 | 0.00 | 0.99 | 0.00 | 46 | 1015.7 |
| 20260507171505 | 12 | 265 | 4.8 | 16.1 | 0.00 | 0.99 | 0.00 | 46 | 1015.7 |
| 20260507171007 | 12 | 278 | 4.8 | 16.1 | 0.00 | 0.99 | 0.00 | 44 | 1015.7 |
| 20260507170506 | 12 | 236 | 6.4 | 17.7 | 0.00 | 0.99 | 0.00 | 45 | 1015.7 |
| 20260507170007 | 11 | 244 | 9.7 | 17.7 | 0.00 | 0.99 | 0.00 | 43 | 1015.8 |
| 20260507170005 | 11 | 244 | 8.0 | 17.7 | 0.00 | 0.99 | 0.00 | 43 | 1016.6 |
| 20260507165506 | 11 | 251 | 6.4 | 14.5 | 0.00 | 0.99 | 0.00 | 45 | 1015.9 |
| 20260507164506 | 11 | 170 | 6.4 | 19.3 | 0.00 | 0.99 | 0.00 | 46 | 1016.0 |
| 20260507164504 | 11 | 170 | 6.4 | 19.3 | 0.00 | 0.99 | 0.00 | 46 | 1016.8 |
| 20260507164006 | 11 | 227 | 6.4 | 19.3 | 0.00 | 0.99 | 0.00 | 47 | 1016.0 |
| 20260507163506 | 11 | 275 | 6.4 | 14.5 | 0.00 | 0.99 | 0.00 | 50 | 1016.0 |
| 20260507163007 | 11 | 265 | 8.0 | 16.1 | 0.00 | 0.99 | 0.00 | 50 | 1016.1 |
| 20260507163004 | 11 | 265 | 6.4 | 16.1 | 0.00 | 0.99 | 0.00 | 50 | 1017.0 |
| 20260507162006 | 10 | 284 | 8.0 | 16.1 | 0.00 | 0.99 | 0.00 | 51 | 1016.1 |
| 20260507161505 | 10 | 245 | 3.2 | 14.5 | 0.00 | 0.99 | 0.00 | 52 | 1017.3 |
| 20260507161008 | 10 | 251 | 4.8 | 12.9 | 0.00 | 0.99 | 0.00 | 53 | 1016.3 |
| 20260507160506 | 9 | 262 | 6.4 | 12.9 | 0.00 | 0.99 | 0.00 | 52 | 1016.3 |
| 20260507160005 | 9 | 271 | 6.4 | 16.1 | 0.00 | 0.99 | 0.00 | 51 | 1017.5 |
| 20260507155506 | 8 | 252 | 6.4 | 16.1 | 0.00 | 1.02 | 0.00 | 52 | 1016.3 |
| 20260507155007 | 8 | 259 | 4.8 | 14.5 | 0.00 | 1.02 | 0.00 | 52 | 1016.3 |
| 20260507154504 | 8 | 257 | 4.8 | 17.7 | 0.00 | 1.02 | 0.00 | 54 | 1016.4 |
| 20260507154502 | 8 | 257 | 3.2 | 17.7 | 0.00 | 1.02 | 0.00 | 54 | 1017.7 |
| 20260507154008 | 8 | 223 | 6.4 | 17.7 | 0.00 | 1.02 | 0.00 | 52 | 1016.4 |
| 20260507153507 | 8 | 259 | 8.0 | 14.5 | 0.00 | 1.02 | 0.00 | 53 | 1016.3 |
| 20260507153007 | 8 | 288 | 8.0 | 14.5 | 0.00 | 1.02 | 0.00 | 52 | 1016.2 |
| 20260507153003 | 8 | 288 | 6.4 | 14.5 | 0.00 | 1.02 | 0.00 | 52 | 1017.6 |
| 20260507152506 | 7 | 209 | 9.7 | 14.5 | 0.00 | 1.02 | 0.00 | 52 | 1016.2 |
| 20260507152007 | 7 | 257 | 8.0 | 17.7 | 0.00 | 1.02 | 0.00 | 53 | 1016.1 |
| 20260507151506 | 7 | 263 | 6.4 | 14.5 | 0.00 | 1.02 | 0.00 | 55 | 1016.1 |
| 20260507151005 | 7 | 240 | 8.0 | 14.5 | 0.00 | 1.02 | 0.00 | 55 | 1016.2 |
| 20260507150505 | 7 | 210 | 4.8 | 11.3 | 0.00 | 1.02 | 0.00 | 56 | 1016.3 |
| 20260507150007 | 6 | 269 | 6.4 | 12.9 | 0.00 | 1.02 | 0.00 | 55 | 1016.3 |
| 20260507145507 | 6 | 284 | 6.4 | 12.9 | 0.00 | 1.02 | 0.00 | 56 | 1016.1 |
| 20260507145007 | 6 | 258 | 4.8 | 16.1 | 0.00 | 1.02 | 0.00 | 57 | 1016.1 |
| 20260507144505 | 6 | 246 | 6.4 | 16.1 | 0.00 | 1.02 | 0.00 | 56 | 1016.2 |
| 20260507144006 | 6 | 263 | 3.2 | 14.5 | 0.00 | 1.02 | 0.00 | 58 | 1016.1 |
| 20260507143504 | 6 | 251 | 3.2 | 14.5 | 0.00 | 1.02 | 0.00 | 58 | 1016.2 |
| 20260507143006 | 5 | 252 | 6.4 | 16.1 | 0.00 | 1.02 | 0.00 | 57 | 1016.2 |
| 20260507143003 | 5 | 252 | 6.4 | 16.1 | 0.00 | 1.02 | 0.00 | 57 | 1017.9 |
| 20260507142506 | 5 | 234 | 6.4 | 16.1 | 0.00 | 1.02 | 0.00 | 57 | 1016.3 |
| 20260507142007 | 5 | 277 | 4.8 | 14.5 | 0.00 | 1.02 | 0.00 | 57 | 1016.2 |
| 20260507141506 | 5 | 263 | 6.4 | 16.1 | 0.00 | 1.02 | 0.00 | 57 | 1016.2 |
| 20260507141504 | 5 | 263 | 4.8 | 16.1 | 0.00 | 1.02 | 0.00 | 57 | 1018.0 |
| 20260507141007 | 5 | 257 | 6.4 | 16.1 | 0.00 | 1.02 | 0.00 | 56 | 1016.2 |
| 20260507140505 | 5 | 270 | 4.8 | 16.1 | 0.00 | 1.02 | 0.00 | 58 | 1016.1 |
| 20260507140006 | 4 | 247 | 6.4 | 14.5 | 0.00 | 1.02 | 0.00 | 58 | 1016.1 |
| 20260507140001 | 4 | 247 | 4.8 | 14.5 | 0.00 | 1.02 | 0.00 | 58 | 1018.1 |
| 20260507135506 | 4 | 223 | 4.8 | 11.3 | 0.00 | 1.02 | 0.00 | 57 | 1016.1 |
| 20260507135006 | 4 | 212 | 4.8 | 11.3 | 0.00 | 1.02 | 0.00 | 58 | 1016.2 |
| 20260507134510 | 3 | 240 | 4.8 | 11.3 | 0.00 | 1.02 | 0.00 | 59 | 1018.3 |
| 20260507134506 | 3 | 240 | 4.8 | 11.3 | 0.00 | 1.02 | 0.00 | 59 | 1016.2 |
| 20260507134007 | 3 | 261 | 3.2 | 11.3 | 0.00 | 1.02 | 0.00 | 60 | 1016.1 |
| 20260507133506 | 3 | 221 | 4.8 | 12.9 | 0.00 | 1.02 | 0.00 | 60 | 1016.1 |
| 20260507133006 | 3 | 234 | 6.4 | 14.5 | 0.00 | 1.02 | 0.00 | 60 | 1016.0 |
| 20260507133004 | 3 | 234 | 4.8 | 14.5 | 0.00 | 1.02 | 0.00 | 60 | 1018.2 |
| 20260507132505 | 3 | 254 | 6.4 | 14.5 | 0.00 | 1.02 | 0.00 | 60 | 1016.0 |
| 20260507132006 | 2 | 254 | 4.8 | 16.1 | 0.00 | 1.02 | 0.00 | 59 | 1015.9 |
| 20260507131506 | 2 | 238 | 6.4 | 16.1 | 0.00 | 1.02 | 0.00 | 60 | 1015.9 |
| 20260507131504 | 2 | 238 | 4.8 | 16.1 | 0.00 | 1.02 | 0.00 | 60 | 1018.2 |
| 20260507131000 | 2 | 200 | 6.4 | 16.1 | 0.00 | 1.02 | 0.00 | 61 | 1015.9 |
| 20260507130006 | 2 | 255 | 6.4 | 14.5 | 0.00 | 1.02 | 0.00 | 60 | 1015.8 |
| 20260507130004 | 2 | 255 | 6.4 | 14.5 | 0.00 | 1.02 | 0.00 | 60 | 1018.2 |
| 20260507125506 | 2 | 208 | 6.4 | 12.9 | 0.00 | 1.02 | 0.00 | 60 | 1015.7 |
| 20260507125006 | 1 | 229 | 6.4 | 12.9 | 0.00 | 1.02 | 0.00 | 62 | 1015.7 |
| 20260507124512 | 1 | 262 | 6.4 | 11.3 | 0.00 | 1.02 | 0.00 | 61 | 1017.9 |
| 20260507124506 | 1 | 262 | 6.4 | 11.3 | 0.00 | 1.02 | 0.00 | 61 | 1015.5 |
| 20260507124006 | 1 | 234 | 4.8 | 8.0 | 0.00 | 1.02 | 0.00 | 63 | 1015.4 |
| 20260507123505 | 0 | 241 | 3.2 | 8.0 | 0.00 | 1.02 | 0.00 | 64 | 1015.4 |
| 20260507123006 | 0 | 200 | 3.2 | 9.7 | 0.00 | 1.02 | 0.00 | 64 | 1017.7 |
| 20260507122506 | 0 | 211 | 4.8 | 9.7 | 0.00 | 1.02 | 0.00 | 65 | 1015.3 |
| 20260507122005 | 0 | 222 | 4.8 | 8.0 | 0.00 | 1.02 | 0.00 | 65 | 1015.3 |
| 20260507121503 | 0 | 225 | 3.2 | 8.0 | 0.00 | 1.02 | 0.00 | 65 | 1017.7 |
| 20260507121008 | 0 | 196 | 4.8 | 11.3 | 0.00 | 1.02 | 0.00 | 65 | 1015.3 |
| 20260507120015 | 0 | 234 | 3.2 | 9.7 | 0.00 | 1.02 | 0.00 | 65 | 1017.7 |
| 20260507120008 | 0 | 234 | 4.8 | 9.7 | 0.00 | 1.02 | 0.00 | 65 | 1015.3 |
| 20260507115506 | 0 | 179 | 6.4 | 9.7 | 0.00 | 1.02 | 0.00 | 65 | 1015.2 |
| 20260507115006 | 0 | 178 | 4.8 | 9.7 | 0.00 | 1.02 | 0.00 | 65 | 1015.2 |
| 20260507114505 | 0 | 225 | 3.2 | 8.0 | 0.00 | 1.02 | 0.00 | 65 | 1015.2 |
| 20260507114503 | 0 | 225 | 3.2 | 8.0 | 0.00 | 1.02 | 0.00 | 65 | 1017.6 |
| 20260507114006 | 0 | 225 | 3.2 | 8.0 | 0.00 | 1.02 | 0.00 | 65 | 1015.3 |
| 20260507113505 | 0 | 220 | 3.2 | 8.0 | 0.00 | 1.02 | 0.00 | 65 | 1015.2 |
| 20260507113017 | 0 | 241 | 3.2 | 8.0 | 0.00 | 1.02 | 0.00 | 65 | 1017.6 |
| 20260507113007 | 0 | 241 | 3.2 | 8.0 | 0.00 | 1.02 | 0.00 | 65 | 1015.2 |
| 20260507112505 | 0 | 215 | 3.2 | 8.0 | 0.00 | 1.02 | 0.00 | 65 | 1015.2 |
| 20260507111506 | 0 | 196 | 3.2 | 8.0 | 0.00 | 1.02 | 0.00 | 65 | 1015.1 |
| 20260507111504 | 0 | 196 | 1.6 | 8.0 | 0.00 | 1.02 | 0.00 | 65 | 1017.5 |
| 20260507110507 | 0 | 232 | 6.4 | 11.3 | 0.00 | 1.02 | 0.00 | 64 | 1015.1 |
| 20260507110010 | 0 | 237 | 6.4 | 14.5 | 0.00 | 1.02 | 0.00 | 64 | 1017.7 |
| 20260507110006 | 0 | 237 | 6.4 | 14.5 | 0.00 | 1.02 | 0.00 | 64 | 1015.2 |
| 20260507105505 | 0 | 236 | 6.4 | 14.5 | 0.00 | 1.02 | 0.00 | 65 | 1015.2 |
| 20260507105006 | 0 | 264 | 3.2 | 11.3 | 0.00 | 1.02 | 0.00 | 65 | 1015.2 |
| 20260507104506 | 0 | 225 | 4.8 | 9.7 | 0.00 | 1.02 | 0.00 | 65 | 1015.2 |
| 20260507104503 | 0 | 225 | 4.8 | 9.7 | 0.00 | 1.02 | 0.00 | 65 | 1017.6 |
| 20260507104006 | 0 | 227 | 6.4 | 11.3 | 0.00 | 1.02 | 0.00 | 65 | 1015.2 |
| 20260507103505 | 0 | 230 | 4.8 | 12.9 | 0.00 | 1.02 | 0.00 | 66 | 1015.3 |
| 20260507103006 | 0 | 244 | 6.4 | 12.9 | 0.00 | 1.02 | 0.00 | 66 | 1015.3 |
| 20260507103003 | 0 | 244 | 4.8 | 12.9 | 0.00 | 1.02 | 0.00 | 66 | 1017.8 |
| 20260507102505 | 0 | 231 | 4.8 | 12.9 | 0.00 | 1.02 | 0.00 | 66 | 1015.3 |
| 20260507102007 | 0 | 256 | 4.8 | 11.3 | 0.00 | 1.02 | 0.00 | 66 | 1015.4 |
| 20260507101507 | 0 | 234 | 3.2 | 8.0 | 0.00 | 1.02 | 0.00 | 66 | 1017.9 |
| 20260507101006 | 0 | 263 | 4.8 | 12.9 | 0.00 | 1.02 | 0.00 | 66 | 1015.4 |
| 20260507100506 | 0 | 247 | 4.8 | 12.9 | 0.00 | 1.02 | 0.00 | 66 | 1015.4 |
| 20260507100005 | 0 | 240 | 4.8 | 14.5 | 0.00 | 1.02 | 0.00 | 67 | 1018.0 |
| 20260507095006 | 0 | 234 | 4.8 | 11.3 | 0.00 | 1.02 | 0.00 | 68 | 1015.5 |
| 20260507094604 | 0 | 243 | 4.8 | 12.9 | 0.00 | 1.02 | 0.00 | 68 | 1018.1 |
| 20260507094459 | 0 | 247 | 6.4 | 12.9 | 0.00 | 1.02 | 0.00 | 68 | 1015.5 |
| 20260507094006 | 0 | 234 | 8.0 | 12.9 | 0.00 | 1.02 | 0.00 | 69 | 1015.5 |
| 20260507093504 | 0 | 236 | 9.7 | 12.9 | 0.00 | 1.02 | 0.00 | 69 | 1015.5 |
| 20260507093005 | 0 | 216 | 4.8 | 12.9 | 0.00 | 1.02 | 0.00 | 69 | 1015.5 |
| 20260507093003 | 0 | 216 | 4.8 | 12.9 | 0.00 | 1.02 | 0.00 | 69 | 1018.1 |
| 20260507092506 | 0 | 228 | 8.0 | 12.9 | 0.00 | 1.02 | 0.00 | 69 | 1015.6 |
| 20260507092007 | 0 | 246 | 4.8 | 12.9 | 0.00 | 1.02 | 0.00 | 70 | 1015.7 |
| 20260507091506 | 0 | 238 | 6.4 | 12.9 | 0.00 | 1.02 | 0.00 | 70 | 1015.5 |
| 20260507091503 | 0 | 238 | 6.4 | 12.9 | 0.00 | 1.02 | 0.00 | 70 | 1018.2 |
| 20260507091006 | 0 | 242 | 6.4 | 11.3 | 0.00 | 1.02 | 0.00 | 70 | 1015.6 |
| 20260507090505 | 0 | 225 | 4.8 | 14.5 | 0.00 | 1.02 | 0.00 | 71 | 1015.6 |
| 20260507090007 | 0 | 238 | 8.0 | 14.5 | 0.00 | 1.02 | 0.00 | 71 | 1015.6 |
| 20260507085500 | 0 | 311 | 6.4 | 9.7 | 0.00 | 1.02 | 0.00 | 71 | 1015.7 |